User: anonymous   Login
Location: Unspecified
(0.0000°N, 0.0000°E)
Time: 11:48:27
(UTC+00:00)
Language:

Snapshot - Orbit

View from above orbital plane
View from above orbital plane
View from above satellite
View from above satellite

Ground track
Ground track

The orbit data is extracted from the following two-line orbital elements,

1  1314U 65027A   18108.95460362 -.00000022 +00000-0 -11087-3 0  9998
2  1314 090.3020 293.2811 0031435 140.5624 334.6070 12.91753123246132
Epoch (UTC): 18 April 2018 22:54:37
Eccentricity: 0.0031435
inclination: 90.3020°
perigee height: 1270 km
apogee height: 1318 km
right ascension of ascending node: 293.2811°
argument of perigee: 140.5624°
revolutions per day: 12.91753123
mean anomaly at epoch: 334.6070°
orbit number at epoch: 24613

The dashed part of the orbit path shows where the satellite is in the earth's shadow,  

DLR